CZ-6A DEB

Satellite information

Favourite Embed

Satellite Type and Status

DEBRISIN ORBIT

Key statistics

Satellite CZ-6A DEB at a glance.

Uptime

969

Days in orbit

Revolutions

≈ 14.4

Per day

Orbit

SSO

Sun Synchronous Orbit

Inclination

98.6

Latest

Satellite identification and parameters

Extended collection of information and parameters for CZ-6A DEB.

Object identification

Identified? True

Debris? True

Object name: CZ-6A DEB

International designator: 2022-151DS

Object number (NORAD): 54394

Object ID (CCSDS): 54394

Country: PEOPLES REPUBLIC OF CHINA (PRC)

Current information (Y/N): Y

RCS size: LARGE

Orbital parameters

Period: 99.903 minutes

Inclination: 98.5998 deg

SMA: 7132.001 km

Apoapsis: 826.442 km

Periapsis: 681.289 km

RAAN: 211.0041 deg

Eccentricy: 0.0101762

Argument of periapsis: 307.2387 deg

Mean anomaly: 51.9551 deg

Mean motion: 14.41403926 rev/day

Mean motion (dot): 0.00001278 rev/day2

B* drag term: 0.00038507 1/REarth

Two-line elements (TLE)

Creation date: July 5, 2025, 5:45 p.m.

Reference frame: TEME

Reference center: EARTH

Epoch: July 5, 2025, 2:08 p.m. UTC

TLE line 0: 0 CZ-6A DEB

TLE line 1: 1 54394U 22151DS 25186.58955664 .00001278 00000-0 38507-3 0 9990

TLE line 2: 2 54394 98.5998 211.0041 0101762 307.2387 51.9551 14.41403926138643

Live tracking on map

Real-time ground track for satellite CZ-6A DEB.

In-orbit conjunctions

A list of the most updated potential collisions computed for object CZ-6A DEB.

Target Orbit TCA Probability of collision Miss distance Type
IRIDIUM 33 DEB LEO 2025-02-10 13:11:14 0.001282699 39.0 (m) DEBRIS
SPOT 4 SSO 2024-11-07 11:27:37 0.0005535772 517.0 (m) PAYLOAD

Associated space launch

Chinese satellite reported for atmospheric/ocean/environmental/spatial parameter research purposes, details TBD.

CZ-6A DEB was lifted into orbit during the mission ‘Long March 6A | Yunhai 3’, on board a Long March 6A space rocket.

The launch took place on Nov. 11, 2022, 10:52 p.m. from Launch Complex 9A.

For more information about the launch, click the button.

Launch to space Long March 6A | Yunhai 3
Long March 6A | Yunhai 3

Agency: N/A

Status: Launch Successful

Launch date: Nov. 11, 2022, 10:52 p.m. UTC

Rocket: Long March 6A

Launch pad: Launch Complex 9A

Location: Taiyuan Satellite Launch Center, People's Republic of China

...

Latest news about this satellite

There are no fresh news available about this satellite. Check back as we update our databases every day.


Newsletter sign-up

Weekly statistics, charts and insights to help you stay on top of the space industry.